Flag Weather past 2 weeks in Akron, Ohio, U.S.A.

Now
47 °F

Mostly cloudy.


Feels Like: 45 °F
Forecast: 41 / 49 °F
Wind: 5 mph from North

Location: Akron Fulton International Airport

Current Time: Oct 30, 2014 at 11:16:41 AM

Latest Report: Oct 30, 2014 at 10:54 AM


Visibility: 10 mi

Pressure: 30.13 "Hg

Humidity: 80%

Dew point: 41 °F

Location of AkronLocation

Historic Weather in Akron — Graph

°F

Akron temperature yesterday

Maximum temperature yesterday: 56 °F (at 12:54 PM)
Minimum temperature yesterday: 46 °F (at 11:54 PM)
Average temperature yesterday: 50 °F

Past Weeks' High & Low Weather Summary

 TemperatureHumidityPressure
High74 °F (Oct 27, 3:54 PM)97% (Oct 24, 12:54 AM)30.25 "Hg (Oct 24, 12:54 AM)
Low33 °F (Oct 27, 4:54 AM)27% (Oct 26, 3:54 PM)29.56 "Hg (Oct 17, 2:54 PM)
Average53 °F72%29.94 "Hg
* Reported Oct 15 10:01 AM — Oct 30 9:54 AM, Akron, Weather by CustomWeather, © 2014

Note: Actual official high and low records may vary slightly from our data, if they occured in-between our weather recording intervals... More about our weather records

Advertising

Akron weather history for previous 24 hours

 ConditionsComfort  
Time TempWeatherWind HumidityBarometerVisibility
9:54 AM
Oct 30
44 °FLight rain. Fog.3 mph89%30.14 "Hg5 mi
8:54 AM43 °FFog.3 mph86%30.13 "Hg6 mi
7:54 AM41 °FMostly cloudy.3 mph89%30.11 "Hg9 mi
6:54 AM41 °FOvercast.5 mph86%30.10 "Hg10 mi
5:54 AM39 °FClear.5 mph89%30.09 "Hg10 mi
4:54 AM43 °FPassing clouds.6 mph82%30.08 "Hg10 mi
3:54 AM44 °FMostly cloudy.5 mph82%30.07 "Hg10 mi
2:54 AM44 °FMostly cloudy.5 mph79%30.07 "Hg10 mi
1:54 AM44 °FOvercast.8 mph79%30.07 "Hg10 mi
12:54 AM46 °FOvercast.9 mph68%30.06 "Hg10 mi
11:54 PM
Oct 29
46 °FOvercast.9 mph68%30.06 "Hg10 mi
10:54 PM47 °FMostly cloudy.9 mph66%30.07 "Hg10 mi
9:54 PM47 °FOvercast.10 mph66%30.06 "Hg10 mi
8:54 PM48 °FOvercast.13 mph61%30.05 "Hg10 mi
7:54 PM49 °FOvercast.10 mph59%30.05 "Hg10 mi
6:54 PM50 °FOvercast.15 mph54%30.03 "Hg10 mi
5:54 PM50 °FOvercast.14 mph54%30.01 "Hg10 mi
4:54 PM51 °FOvercast.15 mph50%30.00 "Hg10 mi
3:54 PM54 °FPartly sunny.16 mph49%29.98 "Hg10 mi
2:54 PM54 °FPartly sunny.20 mph49%29.97 "Hg10 mi
1:54 PM55 °FPartly sunny.16 mph47%29.96 "Hg10 mi
12:54 PM56 °FPartly sunny.14 mph47%29.97 "Hg10 mi
11:54 AM55 °FSunny.16 mph49%29.98 "Hg10 mi
Weather by CustomWeather, © 2014

See weather overviewHow to use our weather pages